Home   Weather   San Francisco   Past weeks
Flag for USA

Past Weather in San Francisco, California, USA — Yesterday and Last 2 Weeks

Now
54 °F

Partly cloudy.


Feels Like: 49 °F
Forecast: 66 / 54 °F
Wind: 21 mph from West

Location: San Francisco International Airport

Current Time: May 22, 2019 at 2:39:11 am

Latest Report: May 22, 2019 at 1:56 am


Visibility: 8 mi

Pressure: 29.83 "Hg

Humidity: 83%

Dew Point: 49 °F

Location of San FranciscoLocation

Past Weather in San Francisco — Graph

°F

San Francisco Temperature Yesterday

Maximum temperature yesterday: 60 °F (at 12:56 pm)
Minimum temperature yesterday: 53 °F (at 4:56 am)
Average temperature yesterday: 56 °F

High & Low Weather Summary for the Past Weeks

 TemperatureHumidityPressure
High68 °F (May 10, 2:56 pm)93% (May 18, 6:56 pm)30.15 "Hg (May 18, 6:56 pm)
Low50 °F (May 19, 6:56 am)50% (May 17, 1:56 pm)29.65 "Hg (May 15, 8:56 pm)
Average57 °F73%29.93 "Hg
* Reported May 7 12:56 am — May 22 12:56 am, San Francisco. Weather by CustomWeather, © 2019

Note: Actual official high and low records may vary slightly from our data, if they occured in-between our weather recording intervals... More about our weather records

Advertising

San Francisco Weather History for the Previous 24 Hours

Scroll right to see more
 ConditionsComfort  
Time TempWeatherWind HumidityBarometerVisibility
12:56 am
Wed, May 22
54 °FMostly cloudy.16 mph83%29.85 "Hg8 mi
11:56 pm
Tue, May 21
53 °FPartly cloudy.18 mph86%29.87 "Hg8 mi
10:56 pm53 °FFog.17 mph86%29.88 "Hg5 mi
9:56 pm55 °FPassing clouds.18 mph80%29.88 "Hg8 mi
9:05 pm53 °FFog.15 mph89%29.88 "Hg5 mi
8:56 pm54 °FRain. Fog.16 mph86%29.88 "Hg3 mi
7:56 pm56 °FBroken clouds.22 mph75%29.88 "Hg8 mi
6:56 pm56 °FBroken clouds.25 mph72%29.88 "Hg9 mi
5:56 pm58 °FPartly sunny.24 mph70%29.89 "Hg9 mi
4:56 pm58 °FPartly sunny.25 mph72%29.90 "Hg8 mi
3:56 pm58 °FPartly sunny.24 mph78%29.91 "Hg8 mi
2:56 pm59 °FBroken clouds.26 mph64%29.93 "Hg9 mi
1:56 pm60 °FCloudy.24 mph65%29.93 "Hg9 mi
12:56 pm60 °FCloudy.20 mph67%29.95 "Hg9 mi
11:56 am57 °FCloudy.23 mph74%29.94 "Hg9 mi
10:56 am58 °FPartly sunny.21 mph78%29.94 "Hg9 mi
9:56 am56 °FBroken clouds.15 mph81%29.95 "Hg9 mi
8:56 am55 °FMostly cloudy.17 mph83%29.95 "Hg4 mi
7:56 am56 °FPartly sunny.14 mph77%29.94 "Hg9 mi
7:17 am55 °FPartly sunny.13 mph80%29.95 "Hg9 mi
6:56 am54 °FPartly sunny.6 mph80%29.94 "Hg10 mi
5:56 am54 °FBroken clouds.10 mph80%29.94 "Hg8 mi
4:56 am53 °FLight rain. Mostly cloudy.17 mph83%29.94 "Hg4 mi
3:56 am56 °FMostly cloudy.13 mph81%29.93 "Hg8 mi
2:56 am56 °FMostly cloudy.9 mph77%29.92 "Hg9 mi
Weather by CustomWeather, © 2019

See weather overview